Regional Weather Roundup
Issued by NWS

Home | Current Version | Previous Version | Text Only | Print | Product List | Glossary On
Versions: 1 2 3 4 5 6 7 8 9 10 11 12 13 14 15 16 17 18 19 20 21 22 23 24 25 26 27 28 29 30 31 32 33 34 35 36 37 38 39 40 41 42 43 44 45 46 47 48 49 50
000
ASUS46 KPQR 270510
RWROR

OREGON REGIONAL WEATHER ROUNDUP
NATIONAL WEATHER SERVICE PORTLAND OR
1000 PM PDT WED APR 26 2017

NOTE: "FAIR" INDICATES FEW OR NO CLOUDS BELOW 12,000 FEET WITH
NO SIGNIFICANT WEATHER AND/OR OBSTRUCTIONS TO VISIBILITY.

ORZ001>013-270600-
NORTHWEST OREGON


CITY           SKY/WX    TMP DP  RH WIND       PRES   REMARKS
ASTORIA        MOCLDY    45  39  79 W5        30.07R
NEWPORT        RAIN      48  43  81 NW9G20    30.16R
PORTLAND       MOCLDY    48  40  73 W8        30.07R
VANCOUVER WA   MOCLDY    49  40  71 NW6       30.07R
SCAPPOOSE      MOCLDY    45  40  82 W5        30.07R
HILLSBORO      CLEAR     46  43  89 SW3       30.07R
AURORA         MOCLDY    47  40  76 W7        30.10R
MCMINNVILLE    PTCLDY    44  40  85 S6        30.10R
SALEM          CLOUDY    47  41  80 CALM      30.11R
CORVALLIS      MOCLDY    46  39  76 W3        30.13R
EUGENE         MOCLDY    47  43  86 W8        30.14R
$$

ORZ021-028-270600-
SOUTHWEST OREGON


CITY           SKY/WX    TMP DP  RH WIND       PRES   REMARKS
NORTH BEND     PTCLDY    50  43  76 NW6       30.19R
BROOKINGS      CLEAR     47  43  86 N6        30.18R
ROSEBURG       PTCLDY    47  42  83 NE6       30.15R
SEXTON SUMMIT  FOG       35  34  96 N3        30.08R VSB 1/4
MEDFORD        MOCLDY    52  41  66 N9        30.10R
$$

ORZ014>016-041-270600-
COLUMBIA GORGE


CITY           SKY/WX    TMP DP  RH WIND       PRES   REMARKS
TROUTDALE      CLOUDY    49  45  86 W3        30.07R
HOOD RIVER     CLOUDY    46  39  76 W5G18     29.96S
THE DALLES     CLOUDY    51  40  65 W10G16    29.95R
$$

ORZ029>031-041-044-049-050-061>064-502-503-505>511-270600-
EASTERN OREGON


CITY           SKY/WX    TMP DP  RH WIND       PRES   REMARKS
REDMOND        MOCLDY    41  28  60 N8        29.94R
BEND           MOCLDY    39  30  70 CALM      29.94S
PRINEVILLE     PTCLDY    41  32  70 W18G24    29.93R
KLAMATH FALLS  CLEAR     40  33  76 W14       30.00R WCI  32
LAKEVIEW       PTCLDY    37  27  65 W8        29.98R WCI  31
HERMISTON      CLEAR     49  38  65 SW17G28   29.87R
PENDLETON      LGT RAIN  46  37  71 W25G32    29.85R
JOHN DAY       CLOUDY    41  35  80 W6        29.90R
MEACHAM        CLOUDY    38  30  73 VRB5      29.85R WCI  34
LA GRANDE      MOCLDY    45  39  81 N8        29.85R
BAKER CITY     PTCLDY    40  33  76 W10G23    29.84R WCI  33
BURNS          CLEAR     37  29  72 W9        29.89R WCI  30
ROME             N/A     45  28  51 CALM      29.89R
ONTARIO        CLEAR     43  36  76 NW7       29.86R
$$



USA.gov is the U.S. government's official web portal to all federal, state and local government web resources and services.